Time,TemperatureF,DewpointF,PressureIn,WindDirection,WindDirectionDegrees,WindSpeedMPH,WindSpeedGustMPH,Humidity,HourlyPrecipIn,Conditions,Clouds,dailyrainin,SoftwareType,DateUTC
2013-02-25 00:01:00,31.0,29.0,-100.00,North,5,8.0,14.0,95,-99.99,,,-99.99,,2013-02-25 05:01:00,
2013-02-25 00:11:00,30.0,29.0,-100.00,North,0,7.0,14.0,96,-99.99,,,-99.99,,2013-02-25 05:11:00,
2013-02-25 00:22:00,30.0,29.0,-100.00,North,0,7.0,14.0,96,-99.99,,,-99.99,,2013-02-25 05:22:00,
2013-02-25 00:32:00,30.0,29.0,-100.00,North,10,7.0,14.0,95,-99.99,,,-99.99,,2013-02-25 05:32:00,
2013-02-25 00:42:00,30.0,29.0,-100.00,North,5,6.0,14.0,96,-99.99,,,-99.99,,2013-02-25 05:42:00,
2013-02-25 00:52:00,30.0,29.0,-100.00,North,350,6.0,14.0,95,-99.99,,,-99.99,,2013-02-25 05:52:00,
2013-02-25 01:03:00,30.0,29.0,-100.00,North,350,9.0,14.0,95,-99.99,,,-99.99,,2013-02-25 06:03:00,
2013-02-25 01:12:00,30.0,29.0,-100.00,North,5,6.0,13.0,95,-99.99,,,-99.99,,2013-02-25 06:12:00,
2013-02-25 01:21:00,30.0,29.0,-100.00,North,350,5.0,13.0,96,-99.99,,,-99.99,,2013-02-25 06:21:00,
2013-02-25 01:32:00,30.0,29.0,-100.00,NNW,345,6.0,12.0,95,-99.99,,,-99.99,,2013-02-25 06:32:00,
2013-02-25 01:42:00,30.0,29.0,-100.00,NNW,345,5.0,9.0,95,-99.99,,,-99.99,,2013-02-25 06:42:00,
2013-02-25 01:51:00,30.0,29.0,-100.00,NNW,345,5.0,-999.0,95,-99.99,,,-99.99,,2013-02-25 06:51:00,
2013-02-25 02:01:00,29.0,28.0,-100.00,NNW,340,5.0,8.0,95,-99.99,,,-99.99,,2013-02-25 07:01:00,
2013-02-25 02:11:00,29.0,28.0,-100.00,NNW,335,3.0,8.0,95,-99.99,,,-99.99,,2013-02-25 07:11:00,
2013-02-25 02:21:00,29.0,28.0,-100.00,NNW,335,3.0,8.0,95,-99.99,,,-99.99,,2013-02-25 07:21:00,
2013-02-25 02:32:00,29.0,28.0,-100.00,NNW,330,3.0,8.0,95,-99.99,,,-99.99,,2013-02-25 07:32:00,
2013-02-25 02:42:00,29.0,28.0,-100.00,North,10,7.0,14.0,95,-99.99,,,-99.99,,2013-02-25 07:42:00,
2013-02-25 02:52:00,29.0,28.0,-100.00,NNW,345,5.0,13.0,95,-99.99,,,-99.99,,2013-02-25 07:52:00,
2013-02-25 03:01:00,29.0,28.0,-100.00,North,350,6.0,14.0,96,-99.99,,,-99.99,,2013-02-25 08:01:00,
2013-02-25 03:11:00,29.0,28.0,-100.00,NNE,15,7.0,15.0,96,-99.99,,,-99.99,,2013-02-25 08:11:00,
2013-02-25 03:22:00,30.0,28.0,-100.00,North,10,5.0,13.0,95,-99.99,,,-99.99,,2013-02-25 08:22:00,
2013-02-25 03:32:00,30.0,28.0,-100.00,North,0,6.0,14.0,95,-99.99,,,-99.99,,2013-02-25 08:32:00,
2013-02-25 03:42:00,30.0,29.0,-100.00,NNW,345,3.0,9.0,95,-99.99,,,-99.99,,2013-02-25 08:42:00,
2013-02-25 03:52:00,30.0,29.0,-100.00,North,350,5.0,9.0,95,-99.99,,,-99.99,,2013-02-25 08:52:00,
2013-02-25 04:02:00,30.0,29.0,-100.00,North,350,3.0,9.0,95,-99.99,,,-99.99,,2013-02-25 09:02:00,
2013-02-25 04:12:00,30.0,29.0,-100.00,North,0,3.0,7.0,95,-99.99,,,-99.99,,2013-02-25 09:12:00,
2013-02-25 04:20:00,29.0,28.0,-100.00,NNW,335,5.0,8.0,96,-99.99,,,-99.99,,2013-02-25 09:20:00,
2013-02-25 04:21:00,30.0,29.0,-100.00,North,355,5.0,10.0,96,-99.99,,,-99.99,,2013-02-25 09:21:00,
2013-02-25 04:32:00,30.0,28.0,-100.00,North,355,5.0,10.0,95,-99.99,,,-99.99,,2013-02-25 09:32:00,
2013-02-25 04:42:00,30.0,29.0,-100.00,NNW,345,3.0,7.0,96,-99.99,,,-99.99,,2013-02-25 09:42:00,
2013-02-25 04:52:00,29.0,28.0,-100.00,NNW,345,3.0,8.0,96,-99.99,,,-99.99,,2013-02-25 09:52:00,
2013-02-25 05:01:00,29.0,28.0,-100.00,NNW,335,5.0,8.0,96,-99.99,,,-99.99,,2013-02-25 10:01:00,
2013-02-25 05:11:00,29.0,28.0,-100.00,NNW,335,5.0,8.0,96,-99.99,,,-99.99,,2013-02-25 10:11:00,
2013-02-25 05:32:00,30.0,28.0,-100.00,North,350,3.0,8.0,95,-99.99,,,-99.99,,2013-02-25 10:32:00,
2013-02-25 05:42:00,30.0,29.0,-100.00,North,350,3.0,7.0,95,-99.99,,,-99.99,,2013-02-25 10:42:00,
2013-02-25 05:52:00,30.0,29.0,-100.00,North,350,3.0,7.0,95,-99.99,,,-99.99,,2013-02-25 10:52:00,
2013-02-25 06:01:00,30.0,29.0,-100.00,NW,325,1.0,3.0,95,-99.99,,,-99.99,,2013-02-25 11:01:00,
2013-02-25 06:11:00,30.0,29.0,-100.00,North,0,1.0,3.0,95,-99.99,,,-99.99,,2013-02-25 11:11:00,
2013-02-25 06:22:00,29.0,28.0,-100.00,NW,310,2.0,5.0,96,-99.99,,,-99.99,,2013-02-25 11:22:00,
2013-02-25 06:32:00,29.0,28.0,-100.00,WNW,300,1.0,3.0,95,-99.99,,,-99.99,,2013-02-25 11:32:00,
2013-02-25 06:42:00,29.0,28.0,-100.00,NNW,330,2.0,5.0,95,-99.99,,,-99.99,,2013-02-25 11:42:00,
2013-02-25 06:52:00,29.0,28.0,-100.00,WNW,295,2.0,5.0,95,-99.99,,,-99.99,,2013-02-25 11:52:00,
2013-02-25 07:02:00,29.0,28.0,-100.00,NW,320,2.0,5.0,96,-99.99,,,-99.99,,2013-02-25 12:02:00,
2013-02-25 07:11:00,29.0,28.0,-100.00,NW,320,2.0,3.0,95,-99.99,,,-99.99,,2013-02-25 12:11:00,
2013-02-25 07:22:00,29.0,28.0,-100.00,NNE,20,1.0,3.0,95,-99.99,,,-99.99,,2013-02-25 12:22:00,
2013-02-25 07:32:00,29.0,28.0,-100.00,NW,310,2.0,3.0,96,-99.99,,,-99.99,,2013-02-25 12:32:00,
2013-02-25 07:42:00,30.0,29.0,-100.00,WNW,300,3.0,5.0,96,-99.99,,,-99.99,,2013-02-25 12:42:00,
2013-02-25 07:54:00,30.0,29.0,-100.00,WNW,295,2.0,5.0,95,-99.99,,,-99.99,,2013-02-25 12:54:00,
2013-02-25 08:02:00,30.0,29.0,-100.00,WNW,300,2.0,3.0,96,-99.99,,,-99.99,,2013-02-25 13:02:00,
2013-02-25 08:12:00,30.0,29.0,-100.00,WNW,300,2.0,3.0,96,-99.99,,,-99.99,,2013-02-25 13:12:00,
2013-02-25 08:23:00,31.0,29.0,-100.00,NW,310,3.0,5.0,95,-99.99,,,-99.99,,2013-02-25 13:23:00,
2013-02-25 08:32:00,31.0,29.0,-100.00,NW,305,2.0,6.0,95,-99.99,,,-99.99,,2013-02-25 13:32:00,
2013-02-25 08:42:00,31.0,30.0,-100.00,WNW,300,5.0,6.0,95,-99.99,,,-99.99,,2013-02-25 13:42:00,
2013-02-25 08:52:00,31.0,30.0,-100.00,NW,310,3.0,6.0,96,-99.99,,,-99.99,,2013-02-25 13:52:00,
2013-02-25 19:02:00,34.0,31.0,-100.00,SSW,200,1.0,1.0,89,-99.99,,,-99.99,,2013-02-26 00:02:00,
2013-02-25 20:32:00,33.0,30.0,-100.00,South,180,1.0,2.0,91,-99.99,,,-99.99,,2013-02-26 01:32:00,